Weather reports worldwide

Advertisment
Coleshill, United Kingdom (3535): temperature & dewpoint: 17.01.2019 02:00:00 - 23.01.2019 02:00:00 (GMT)Coleshill, United Kingdom (3535): temperature -20cm & temperature -100cm: 17.01.2019 02:00:00 - 23.01.2019 02:00:00 (GMT)Coleshill, United Kingdom (3535): wind speed: 17.01.2019 02:00:00 - 23.01.2019 02:00:00 (GMT)Coleshill, United Kingdom (3535): wind direction: 17.01.2019 02:00:00 - 23.01.2019 02:00:00 (GMT)Coleshill, United Kingdom (3535): reduced air pressure: 17.01.2019 02:00:00 - 23.01.2019 02:00:00 (GMT)Coleshill, United Kingdom (3535): visibility: 17.01.2019 02:00:00 - 23.01.2019 02:00:00 (GMT)Coleshill, United Kingdom (3535): precipitation: 17.01.2019 02:00:00 - 23.01.2019 02:00:00 (GMT)
Date & Time tt [°C] td [°C] tt -20cm [°C] tt -100cm [°C] ff [km/h] ff [kn] dd ppp [hPa] vv [km] rr [mm]
23.01.2019 02:00:00 -0,6 -0,9 - - 0 0 N 998,0 2,8 0,0
23.01.2019 01:00:00 -0,3 -0,6 - - 0 0 N 997,9 3,8 0,0
23.01.2019 00:00:00 -1,0 -1,4 - - 0 0 N 997,7 4,7 0,0
22.01.2019 23:00:00 -0,6 -1,0 - - 0 0 N 997,6 13 0,0
22.01.2019 22:00:00 -0,5 -1,2 - - 2 1 W 997,8 15 0,0
22.01.2019 21:00:00 0,3 -0,3 - - 11 6 W 997,5 20 0,0
22.01.2019 20:00:00 0,8 0,3 - - 9 5 WNW 998,0 26 0,0
22.01.2019 19:00:00 0,5 0,2 - - 8 4 W 998,0 10 0,0
22.01.2019 18:00:00 0,4 -0,2 - - 4 2 E 998,4 5 0,2
22.01.2019 17:00:00 1,0 0,2 - - 9 5 WSW 998,3 4,7 1,4
22.01.2019 16:00:00 2,4 1,2 - - 11 6 SSW 998,3 11 0,0
22.01.2019 15:00:00 2,5 1,4 - - 13 7 S 998,5 16 0,4
22.01.2019 14:00:00 2,4 0,5 - - 13 7 WSW 999,4 4,6 0,4
22.01.2019 13:00:00 4,3 0,7 - - 11 6 SW 999,8 30 0,0
22.01.2019 12:00:00 3,8 0,5 - - 9 5 SW 1001,0 30 0,0
22.01.2019 11:00:00 3,4 1,0 - - 9 5 SW 1001,9 29 0,0
22.01.2019 10:00:00 2,1 0,4 - - 11 6 SSW 1002,1 30 0,0
22.01.2019 09:00:00 0,9 -0,1 5,0 6,7 9 5 SW 1002,2 29 0,0
22.01.2019 08:00:00 0,8 -0,2 - - 9 5 SW 1002,2 25 0,0
22.01.2019 07:00:00 0,7 -0,2 - - 8 4 SSW 1002,5 16 0,0
22.01.2019 06:00:00 0,4 -0,4 - - 9 5 SSW 1002,8 15 0,0
22.01.2019 05:00:00 0,7 -0,1 - - 9 5 SSW 1002,9 20 0,0
22.01.2019 04:00:00 1,1 0,1 - - 8 4 SW 1003,1 16 0,0
22.01.2019 03:00:00 2,3 1,0 - - 11 6 WSW 1003,8 35 0,0
22.01.2019 02:00:00 3,3 1,6 - - 13 7 W 1004,2 40 0,0
22.01.2019 01:00:00 4,2 2,8 - - 16 9 WSW 1004,3 50 0,6
22.01.2019 00:00:00 4,4 3,8 - - 21 11 S 1004,4 9 1,2
21.01.2019 23:00:00 4,0 3,3 - - 18 10 SSE 1005,9 8 0,6
21.01.2019 22:00:00 3,7 2,7 - - 18 10 SSE 1007,7 7 0,4
21.01.2019 21:00:00 3,7 2,0 - - 16 9 SSE 1009,7 9 0,0
21.01.2019 20:00:00 3,6 1,8 - - 18 10 S 1011,3 8 0,0
21.01.2019 19:00:00 3,4 1,8 - - 16 9 S 1012,9 8 0,0
21.01.2019 18:00:00 3,2 0,9 - - 15 8 SSE 1014,6 13 0,0
21.01.2019 17:00:00 4,1 0,7 - - 16 9 S 1016,0 25 0,0
21.01.2019 16:00:00 4,6 0,9 - - 18 10 S 1017,3 28 0,0
21.01.2019 15:00:00 5,0 1,3 - - 15 8 S 1018,2 23 0,0
21.01.2019 14:00:00 5,0 2,4 - - 16 9 S 1019,2 9 0,0
21.01.2019 13:00:00 4,6 2,4 - - 15 8 S 1020,7 6 0,0
21.01.2019 12:00:00 4,4 3,3 - - 15 8 S 1021,7 4,0 0,0
21.01.2019 11:00:00 3,6 3,2 - - 11 6 S 1022,7 2,7 0,0
21.01.2019 10:00:00 2,7 2,5 - - 8 4 SSE 1023,6 2,5 0,0
21.01.2019 09:00:00 2,2 2,0 5,0 6,9 2 1 SSW 1024,2 2,7 0,0
21.01.2019 08:00:00 2,0 1,8 - - 8 4 SSE 1024,2 2,2 0,0
21.01.2019 07:00:00 2,0 1,7 - - 2 1 SW 1024,3 2,1 0,0
21.01.2019 06:00:00 2,1 1,9 - - 4 2 SSE 1024,1 2,2 0,0
21.01.2019 05:00:00 2,1 1,9 - - 2 1 S 1024,3 1,6 0,0
21.01.2019 04:00:00 1,7 1,5 - - 2 1 SSW 1024,8 1,6 0,0
21.01.2019 03:00:00 1,3 1,0 - - 2 1 E 1024,9 1,7 0,0
21.01.2019 02:00:00 1,0 0,7 - - 2 1 E 1025,0 1,7 0,0
21.01.2019 01:00:00 0,4 0,0 - - 2 1 SW 1025,0 1,4 0,0
21.01.2019 00:00:00 0,9 0,6 - - 2 1 NNW 1025,0 1,5 0,0
20.01.2019 23:00:00 0,8 0,5 - - 5 3 WNW 1024,5 1,7 0,0
20.01.2019 22:00:00 1,2 0,7 - - 2 1 NNW 1023,9 2,3 0,0
20.01.2019 21:00:00 2,4 1,8 - - 0 0 N 1023,6 3,3 0,0
20.01.2019 20:00:00 2,5 1,9 - - 2 1 WNW 1023,1 3,5 0,0
20.01.2019 19:00:00 2,7 2,0 - - 4 2 NNW 1022,5 3,4 0,0
20.01.2019 18:00:00 3,6 2,3 - - 5 3 WNW 1021,8 3,9 0,0
20.01.2019 17:00:00 4,1 2,3 - - 5 3 NNW 1021,4 6 0,0
20.01.2019 16:00:00 4,2 1,2 - - 2 1 NW 1020,6 10 0,0
20.01.2019 15:00:00 4,1 0,9 - - 4 2 NW 1020,1 10 0,0
20.01.2019 14:00:00 3,9 0,7 - - 4 2 WSW 1019,6 11 0,0
20.01.2019 13:00:00 3,6 0,6 - - 4 2 SSW 1019,4 11 0,0
20.01.2019 12:00:00 3,3 0,6 - - 4 2 SSE 1019,0 8 0,0
20.01.2019 11:00:00 2,9 0,8 - - 4 2 SE 1018,8 10 0,0
20.01.2019 10:00:00 2,2 1,3 - - 0 0 N 1018,1 6 0,0
20.01.2019 09:00:00 1,9 1,1 5,2 7,0 2 1 SE 1017,1 4,2 0,0
20.01.2019 08:00:00 1,8 1,1 - - 5 3 E 1016,0 3,4 0,0
20.01.2019 07:00:00 2,1 1,3 - - 4 2 E 1015,2 3,8 0,0
20.01.2019 06:00:00 2,4 1,7 - - 4 2 SE 1014,4 3,7 0,0
20.01.2019 05:00:00 2,2 1,5 - - 2 1 SE 1013,8 2,9 0,0
20.01.2019 04:00:00 2,5 1,7 - - 8 4 ESE 1013,4 4,5 0,0
20.01.2019 03:00:00 3,1 2,3 - - 4 2 E 1013,0 4,2 0,0
20.01.2019 02:00:00 3,2 2,4 - - 4 2 E 1012,5 5 0,0
20.01.2019 01:00:00 3,5 2,6 - - 2 1 SE 1012,3 5 0,0
20.01.2019 00:00:00 3,6 2,6 - - 2 1 ESE 1011,7 5 0,0
19.01.2019 23:00:00 3,7 2,8 - - 5 3 ESE 1011,4 4,8 0,0
19.01.2019 22:00:00 3,7 2,9 - - 8 4 ESE 1010,8 5 0,0
19.01.2019 21:00:00 3,7 2,9 - - 9 5 ESE 1010,4 5 0,0
19.01.2019 20:00:00 3,7 2,9 - - 8 4 ESE 1009,7 4,9 0,0
19.01.2019 19:00:00 3,6 2,8 - - 9 5 ESE 1009,3 6 0,0
19.01.2019 18:00:00 3,6 2,7 - - 13 7 ESE 1008,9 6 0,0
19.01.2019 17:00:00 3,4 2,6 - - 9 5 E 1008,4 6 0,0
19.01.2019 16:00:00 3,6 2,7 - - 11 6 ESE 1008,1 6 0,0
19.01.2019 15:00:00 3,8 2,8 - - 13 7 ESE 1007,8 7 0,0
19.01.2019 14:00:00 3,6 2,7 - - 11 6 ESE 1007,7 6 0,2
19.01.2019 13:00:00 3,6 2,6 - - 13 7 ESE 1008,0 7 0,2
19.01.2019 12:00:00 3,4 2,5 - - 15 8 SE 1008,2 11 0,0
19.01.2019 11:00:00 3,2 2,2 - - 13 7 SE 1008,5 9 0,0
19.01.2019 10:00:00 3,2 1,8 - - 16 9 SE 1008,3 16 0,0
19.01.2019 09:00:00 3,1 1,8 4,7 7,2 16 9 SE 1008,0 13 0,0
19.01.2019 08:00:00 3,0 1,9 - - 13 7 SE 1007,7 8 0,0
19.01.2019 07:00:00 2,9 1,8 - - 16 9 SE 1007,5 14 0,0
19.01.2019 06:00:00 2,8 1,5 - - 18 10 SE 1007,5 19 0,0
19.01.2019 05:00:00 2,6 1,6 - - 15 8 SSE 1007,9 14 0,0
19.01.2019 04:00:00 2,4 1,5 - - 21 11 SE 1008,1 12 0,2
19.01.2019 03:00:00 2,2 1,3 - - 9 5 SSE 1008,9 12 0,0
19.01.2019 02:00:00 1,8 1,0 - - 11 6 SE 1009,1 6 1,2
19.01.2019 01:00:00 1,6 0,8 - - 15 8 SE 1009,5 4,3 0,4
19.01.2019 00:00:00 1,3 0,6 - - 15 8 SE 1010,0 8 1,2
18.01.2019 23:00:00 1,6 0,5 - - 15 8 SSE 1010,3 7 0,4
18.01.2019 22:00:00 2,1 0,7 - - 15 8 SSE 1010,5 19 0,4
18.01.2019 21:00:00 2,0 0,2 - - 18 10 SSE 1011,0 9 0,4
18.01.2019 20:00:00 3,8 -1,2 - - 16 9 SSE 1010,8 35 0,0
18.01.2019 19:00:00 4,0 -1,8 - - 16 9 SSE 1010,9 40 0,0
18.01.2019 18:00:00 4,0 -1,9 - - 16 9 SSE 1011,1 45 0,0
18.01.2019 17:00:00 4,4 -2,9 - - 22 12 SSE 1011,2 50 0,0
18.01.2019 16:00:00 4,5 -1,8 - - 21 11 SSE 1011,6 50 0,0
18.01.2019 15:00:00 4,7 -0,6 - - 22 12 SSE 1011,9 40 0,0
18.01.2019 14:00:00 4,9 0,0 - - 21 11 S 1012,5 40 0,0
18.01.2019 13:00:00 3,6 -0,3 - - 15 8 SSE 1013,6 28 0,0
18.01.2019 12:00:00 3,0 -0,7 - - 16 9 SSE 1014,3 30 0,0
18.01.2019 11:00:00 1,9 -1,5 - - 15 8 SSE 1015,2 23 0,0
18.01.2019 10:00:00 1,0 -2,2 - - 13 7 SSE 1015,5 22 0,0
18.01.2019 09:00:00 0,2 -2,9 5,0 7,5 13 7 SSE 1015,8 30 0,0
18.01.2019 08:00:00 0,0 -3,1 - - 13 7 SSE 1015,9 30 0,0
18.01.2019 07:00:00 -0,2 -3,0 - - 11 6 SSE 1016,2 25 0,0
18.01.2019 06:00:00 -0,4 -3,0 - - 9 5 SSE 1016,6 24 0,0
18.01.2019 05:00:00 -0,6 -2,7 - - 9 5 S 1017,2 27 0,0
18.01.2019 04:00:00 -1,1 -2,9 - - 8 4 S 1017,7 19 0,0
18.01.2019 03:00:00 -1,2 -3,0 - - 8 4 S 1018,3 20 0,0
18.01.2019 02:00:00 -1,1 -2,6 - - 5 3 SSW 1018,4 19 0,0
18.01.2019 01:00:00 -1,4 -3,0 - - 5 3 SSE 1018,6 18 0,0
18.01.2019 00:00:00 -1,3 -3,0 - - 2 1 SW 1019,1 13 0,0
17.01.2019 23:00:00 -1,2 -3,1 - - 2 1 W 1018,9 15 0,0
17.01.2019 22:00:00 0,1 -2,6 - - 8 4 WSW 1019,0 19 0,0
17.01.2019 21:00:00 -0,2 -3,3 - - 4 2 SSW 1018,8 17 0,0
17.01.2019 20:00:00 0,8 -3,2 - - 5 3 WNW 1018,5 27 0,0
17.01.2019 19:00:00 0,7 -3,3 - - 8 4 W 1018,0 30 0,0
17.01.2019 18:00:00 1,1 -3,2 - - 11 6 NW 1017,3 35 0,0
17.01.2019 17:00:00 2,0 -3,7 - - 9 5 NW 1017,3 45 0,0
17.01.2019 16:00:00 3,0 -4,1 - - 13 7 NW 1016,3 45 0,0
17.01.2019 15:00:00 3,9 -4,4 - - 16 9 NW 1015,3 45 0,0
17.01.2019 14:00:00 4,2 -3,6 - - 18 10 NW 1014,6 35 0,0
17.01.2019 13:00:00 3,9 -3,7 - - 21 11 NW 1014,3 30 0,0
17.01.2019 12:00:00 3,5 -3,3 - - 18 10 NW 1013,5 35 0,0
17.01.2019 11:00:00 2,7 -3,8 - - 18 10 NW 1013,2 30 0,0
17.01.2019 10:00:00 1,3 -3,5 - - 15 8 WNW 1012,1 50 0,0
17.01.2019 09:00:00 0,6 -3,9 6,2 7,7 16 9 NW 1011,4 45 0,0
17.01.2019 08:00:00 1,1 -1,5 - - 16 9 NW 1010,0 50 0,0
17.01.2019 07:00:00 1,5 -0,5 - - 22 12 N 1008,5 50 0,2
17.01.2019 06:00:00 3,1 1,8 - - 15 8 WNW 1006,5 27 0,0
17.01.2019 05:00:00 2,6 1,5 - - 15 8 WNW 1005,2 28 0,0
17.01.2019 04:00:00 2,2 1,2 - - 11 6 W 1004,3 45 0,0
17.01.2019 03:00:00 2,6 1,6 - - 15 8 W 1003,8 35 0,0
17.01.2019 02:00:00 2,8 1,6 - - 9 5 WNW 1003,3 45 0,0

tt = temperature
td = dewpoint
tt -20cm = temperature -20cm
tt -100cm = temperature -100cm
ff = wind speed
dd = wind direction
ppp = reduced air pressure
vv = visibility
rr = precipitation

Next stations